Terminal Aerodrome Forecast
Issued by NWS Twin Cities, MN

Home | Current Version | Previous Version | Text Only | Print | Product List | Glossary Off
Versions: 1 2 3 4 5 6 7 8 9 10 11 12 13 14 15 16 17 18 19 20 21 22 23 24 25 26

000
FTUS43 KMPX 181500 AAB
TAFMSP
TAF AMD
KMSP 181518Z 1815/1918 01010KT P6SM BKN025
      TEMPO 1818/1820 SCT025
     FM182000 36006KT P6SM SCT025
     FM190000 17004KT P6SM FEW250
     FM191000 18004KT P6SM SCT100 BKN120=

USA.gov is the U.S. government's official web portal to all federal, state and local government web resources and services.